Fremont, MI

3:57 PM EST on December 11, 2019 (GMT -0500)
Fremont

Weather History for KFFX - October, 2019

Change the Weather History Date:

Saturday, October 26, 2019

  Actual Average (WUND) Record (WUND)
Temperature  
Mean Temperature 39 °F -  
Max Temperature 48 °F - - (-1)
Min Temperature 30 °F - - (-1)
Degree Days  
Heating Degree Days 26    
Moisture  
Dew Point 37 °F    
Average Humidity 87    
Maximum Humidity 100    
Minimum Humidity 60    
Precipitation  
Precipitation 0.00 in - - ()
Sea Level Pressure  
Sea Level Pressure 30.00 in    
Wind  
Wind Speed 5 mph ()    
Max Wind Speed 18 mph    
Max Gust Speed 24 mph    
Visibility 8.9 miles    
Events Rain    
Averages and records for this station are not official NWS values.
T = Trace of Precipitation, MM = Missing Value Source: Averaged Metar Reports

Daily Weather History Graph

Daily Weather History Graph

Search for Another Location

Airport or City:

Astronomy

Oct. 26, 2019 Rise Set
Actual Time 8:11 AM EDT 6:43 PM EDT
Civil Twilight 7:41 AM EDT 7:13 PM EDT
Nautical Twilight 7:08 AM EDT 7:46 PM EDT
Astronomical Twilight 6:35 AM EDT 8:19 PM EDT
Moon 6:00 AM EDT (10/26) 6:23 PM EDT (10/26)
Length of Visible Light 11h 31m
Length of Day
10h 32m
Waning Crescent, 3% of the Moon is Illuminated
Oct 26
Waning Crescent
Oct 27
New
Nov 4
First Quarter
Nov 12
Full
Nov 19
Last Quarter

Hourly Weather History & Observations

Time (EDT) Temp. Windchill Dew Point Humidity Pressure Visibility Wind Dir Wind Speed Gust Speed Precip Events Conditions
12:15 AM 31.1 °F - 31.1 °F 100% 30.22 in 10.0 mi Calm Calm - N/A   Clear
12:16 AM 30.9 °F - 30.9 °F 100% 30.22 in 10.0 mi Calm Calm - N/A   Clear
12:35 AM 32.2 °F - 32.2 °F 100% 30.22 in 10.0 mi Calm Calm - N/A   Clear
12:36 AM 32.2 °F - 32.2 °F 100% 30.22 in 10.0 mi Calm Calm - N/A   Clear
12:59 AM 32.0 °F - 32.0 °F 100% 30.21 in 10.0 mi Calm Calm - N/A   Clear
1:17 AM 32.0 °F - 32.0 °F 100% 30.21 in 10.0 mi Calm Calm - N/A   Clear
1:35 AM 32.0 °F - 32.0 °F 100% 30.20 in 10.0 mi Calm Calm - N/A   Clear
1:55 AM 31.5 °F - 31.5 °F 100% 30.20 in 10.0 mi Calm Calm - N/A   Clear
2:15 AM 31.6 °F - 31.6 °F 100% 30.20 in 10.0 mi Calm Calm - N/A   Clear
2:38 AM 32.0 °F 28.7 °F 32.0 °F 100% 30.19 in 10.0 mi ESE 3.5 mph - N/A   Clear
2:56 AM 31.3 °F - 31.3 °F 100% 30.19 in 10.0 mi Calm Calm - N/A   Clear
3:15 AM 32.0 °F - 32.0 °F 100% 30.20 in 10.0 mi Calm Calm - N/A   Clear
3:16 AM 32.0 °F - 32.0 °F 100% 30.20 in 10.0 mi Calm Calm - N/A   Clear
3:35 AM 32.0 °F - 32.0 °F 100% 30.19 in 10.0 mi Calm Calm - N/A   Clear
3:36 AM 32.0 °F - 32.0 °F 100% 30.19 in 10.0 mi Calm Calm - N/A   Clear
3:59 AM 32.0 °F - 32.0 °F 100% 30.20 in 10.0 mi Calm Calm - N/A   Clear
4:17 AM 32.0 °F 28.7 °F 32.0 °F 100% 30.20 in 10.0 mi ESE 3.5 mph - N/A   Clear
4:35 AM 32.0 °F - 32.0 °F 100% 30.19 in 10.0 mi Calm Calm - N/A   Clear
4:55 AM 31.8 °F - 31.8 °F 100% 30.20 in 10.0 mi Calm Calm - N/A   Clear
4:56 AM 31.8 °F - 31.8 °F 100% 30.20 in 10.0 mi Calm Calm - N/A   Clear
5:15 AM 31.6 °F 28.3 °F 31.6 °F 100% 30.19 in 10.0 mi East 3.5 mph - N/A   Clear
5:20 AM 32.0 °F 27.5 °F 32.0 °F 100% 30.18 in 10.0 mi East 4.6 mph - N/A   Clear
5:38 AM 32.0 °F - 32.0 °F 100% 30.19 in 10.0 mi Calm Calm - N/A   Clear
6:15 AM 32.4 °F 27.9 °F 32.4 °F 100% 30.18 in 10.0 mi East 4.6 mph - N/A   Clear
6:35 AM 32.9 °F 27.5 °F 32.9 °F 100% 30.18 in 10.0 mi East 5.8 mph - N/A   Clear
6:36 AM 32.7 °F 27.3 °F 32.7 °F 100% 30.18 in 10.0 mi East 5.8 mph - N/A   Clear
6:59 AM 33.3 °F 28.9 °F 33.3 °F 100% 30.18 in 10.0 mi East 4.6 mph - N/A   Clear
7:17 AM 33.1 °F 28.7 °F 33.1 °F 100% 30.17 in 10.0 mi East 4.6 mph - N/A   Clear
7:35 AM 33.4 °F 29.1 °F 33.4 °F 100% 30.17 in 10.0 mi East 4.6 mph - N/A   Clear
7:55 AM 32.9 °F 26.7 °F 32.9 °F 100% 30.15 in 10.0 mi East 6.9 mph - N/A   Clear
8:15 AM 34.0 °F 29.8 °F 34.0 °F 100% 30.15 in 10.0 mi East 4.6 mph - N/A   Clear
8:38 AM 34.0 °F 29.8 °F 34.0 °F 100% 30.14 in 10.0 mi East 4.6 mph - N/A   Clear
8:56 AM 34.7 °F 31.8 °F 34.7 °F 100% 30.14 in 10.0 mi East 3.5 mph - N/A   Clear
9:16 AM 35.8 °F - 35.8 °F 100% 30.15 in 10.0 mi Calm Calm - N/A   Clear
9:35 AM 36.7 °F 34.1 °F 35.6 °F 96% 30.14 in 10.0 mi East 3.5 mph - N/A   Clear
9:36 AM 36.7 °F 34.1 °F 35.6 °F 96% 30.14 in 10.0 mi ESE 3.5 mph - N/A   Clear
9:59 AM 37.9 °F 34.4 °F 34.0 °F 86% 30.14 in 10.0 mi ESE 4.6 mph - N/A   Clear
10:16 AM 40.6 °F 36.0 °F 32.0 °F 71% 30.13 in 10.0 mi ESE 6.9 mph - N/A   Clear
10:35 AM 41.0 °F 36.4 °F 31.6 °F 69% 30.11 in 10.0 mi ESE 6.9 mph - N/A   Clear
10:36 AM 41.0 °F 35.8 °F 31.5 °F 69% 30.11 in 10.0 mi ESE 8.1 mph - N/A   Clear
10:55 AM 42.8 °F 38.6 °F 31.5 °F 64% 30.10 in 10.0 mi ESE 6.9 mph - N/A   Clear
10:56 AM 43.0 °F 38.8 °F 31.5 °F 64% 30.10 in 10.0 mi ESE 6.9 mph - N/A   Clear
11:15 AM 43.9 °F 39.3 °F 31.5 °F 62% 30.11 in 10.0 mi SE 8.1 mph - N/A   Clear
11:20 AM 43.9 °F 38.3 °F 31.1 °F 61% 30.11 in 10.0 mi SE 10.4 mph - N/A   Clear
11:38 AM 45.3 °F 40.6 °F 32.0 °F 60% 30.11 in 10.0 mi ESE 9.2 mph - N/A   Clear
11:56 AM 46.0 °F 42.5 °F 32.9 °F 60% 30.08 in 10.0 mi ESE 6.9 mph - N/A   Clear
12:15 PM 46.4 °F 41.1 °F 33.8 °F 62% 30.07 in 10.0 mi ESE 11.5 mph - N/A   Clear
12:16 PM 46.6 °F - 33.6 °F 61% 30.07 in 10.0 mi ESE 11.5 mph - N/A   Clear
12:35 PM 46.4 °F 41.9 °F 34.3 °F 63% 30.06 in 10.0 mi East 9.2 mph - N/A   Clear
12:36 PM 46.4 °F 42.4 °F 34.3 °F 63% 30.06 in 10.0 mi East 8.1 mph - N/A   Clear
12:59 PM 46.8 °F - 34.9 °F 63% 30.05 in 10.0 mi ESE 11.5 mph - N/A   Clear
1:17 PM 47.3 °F - 34.9 °F 62% 30.04 in 10.0 mi SE 12.7 mph 18.4 mph N/A   Clear
1:35 PM 47.5 °F - 35.1 °F 62% 30.02 in 10.0 mi ESE 10.4 mph - N/A   Clear
1:36 PM 47.5 °F - 35.1 °F 62% 30.02 in 10.0 mi ESE 10.4 mph - N/A   Clear
1:55 PM 47.7 °F - 35.2 °F 62% 30.00 in 10.0 mi East 10.4 mph - N/A   Clear
1:56 PM 47.7 °F - 35.2 °F 62% 30.00 in 10.0 mi ESE 9.2 mph - N/A   Clear
2:15 PM 47.7 °F - 34.5 °F 60% 29.99 in 10.0 mi ESE 10.4 mph 19.6 mph N/A   Clear
2:38 PM 47.8 °F - 34.7 °F 60% 29.97 in 10.0 mi East 6.9 mph 18.4 mph N/A   Clear
2:56 PM 47.8 °F - 34.5 °F 60% 29.96 in 10.0 mi ESE 10.4 mph - N/A   Clear
3:15 PM 48.0 °F - 35.1 °F 61% 29.96 in 10.0 mi East 5.8 mph - N/A   Clear
3:16 PM 48.0 °F - 35.2 °F 61% 29.96 in 10.0 mi East 6.9 mph - N/A   Clear
3:35 PM 48.2 °F - 35.8 °F 62% 29.94 in 10.0 mi East 9.2 mph - N/A   Clear
3:36 PM 48.2 °F - 35.8 °F 62% 29.94 in 10.0 mi East 8.1 mph - N/A   Clear
3:59 PM 48.2 °F - 36.5 °F 64% 29.94 in 10.0 mi East 8.1 mph - N/A   Clear
4:17 PM 48.2 °F - 37.0 °F 65% 29.93 in 10.0 mi East 6.9 mph - N/A   Scattered Clouds
4:35 PM 48.2 °F - 37.4 °F 66% 29.91 in 10.0 mi East 9.2 mph - N/A   Mostly Cloudy
4:55 PM 48.2 °F - 37.8 °F 67% 29.89 in 10.0 mi East 9.2 mph - N/A   Overcast
5:15 PM 48.2 °F - 38.1 °F 68% 29.88 in 10.0 mi East 10.4 mph - N/A   Overcast
5:20 PM 48.2 °F - 38.3 °F 69% 29.88 in 10.0 mi East 8.1 mph - N/A   Overcast
5:38 PM 47.3 °F - 39.2 °F 73% 29.87 in 10.0 mi East 10.4 mph - N/A Rain Light Rain
5:56 PM 46.6 °F - 41.0 °F 81% 29.86 in 10.0 mi East 10.4 mph - N/A Rain Rain
6:15 PM 46.0 °F 41.0 °F 45.0 °F 96% 29.85 in 7.0 mi East 10.4 mph - N/A Rain Light Rain
6:35 PM 45.5 °F 39.9 °F 45.5 °F 100% 29.83 in 7.0 mi East 11.5 mph - N/A Rain Rain
6:59 PM 45.0 °F 38.9 °F 45.0 °F 100% 29.81 in 7.0 mi East 12.7 mph 19.6 mph N/A Rain Light Rain
7:17 PM 44.8 °F 38.3 °F 44.8 °F 100% 29.80 in 7.0 mi East 13.8 mph - N/A Rain Rain
7:35 PM 44.6 °F 38.4 °F 44.6 °F 100% 29.79 in 7.0 mi East 12.7 mph 20.7 mph N/A Rain Rain
7:36 PM 44.6 °F 38.4 °F 44.6 °F 100% 29.79 in 7.0 mi East 12.7 mph 20.7 mph N/A Rain Rain
7:55 PM 44.6 °F 38.1 °F 44.6 °F 100% 29.77 in 7.0 mi ENE 13.8 mph 19.6 mph N/A Rain Light Rain
8:15 PM 44.6 °F 37.8 °F 44.6 °F 100% 29.75 in 7.0 mi ENE 15.0 mph 23.0 mph N/A Rain Light Rain
8:38 PM 44.6 °F 38.4 °F 44.6 °F 100% 29.73 in 7.0 mi East 12.7 mph 19.6 mph N/A Rain Light Rain
8:56 PM 44.6 °F 36.9 °F 44.6 °F 100% 29.70 in 5.0 mi ENE 18.4 mph 21.9 mph N/A Rain Light Rain
9:15 PM 44.8 °F 38.7 °F 44.8 °F 100% 29.68 in 7.0 mi East 12.7 mph 24.2 mph N/A Rain Rain
9:16 PM 44.8 °F 38.3 °F 44.8 °F 100% 29.67 in 7.0 mi ENE 13.8 mph - N/A Rain Rain
9:35 PM 45.1 °F 38.1 °F 45.1 °F 100% 29.66 in 7.0 mi ENE 16.1 mph 23.0 mph N/A Rain Rain
9:59 PM 45.5 °F 38.9 °F 45.5 °F 100% 29.64 in 5.0 mi ENE 15.0 mph 21.9 mph N/A Rain Rain
10:17 PM 45.7 °F 39.5 °F 45.7 °F 100% 29.63 in 4.0 mi ENE 13.8 mph 20.7 mph N/A Rain Heavy Rain
10:35 PM 45.7 °F 38.8 °F 45.7 °F 100% 29.61 in 5.0 mi ENE 16.1 mph 21.9 mph N/A Rain Rain
10:36 PM 45.7 °F 39.1 °F 45.7 °F 100% 29.61 in 5.0 mi ENE 15.0 mph 21.9 mph N/A Rain Rain
10:55 PM 45.9 °F 39.7 °F 45.9 °F 100% 29.60 in 5.0 mi East 13.8 mph 24.2 mph N/A Rain Rain
10:56 PM 45.9 °F 39.4 °F 45.9 °F 100% 29.61 in 5.0 mi East 15.0 mph 24.2 mph N/A Rain Rain
11:15 PM 46.0 °F 39.9 °F 46.0 °F 100% 29.59 in 3.0 mi East 13.8 mph 21.9 mph N/A Rain Rain
11:20 PM 46.4 °F 39.8 °F 46.4 °F 100% 29.59 in 3.0 mi East 16.1 mph 23.0 mph N/A Rain Rain
11:38 PM 46.6 °F - 46.6 °F 100% 29.57 in 2.5 mi ENE 16.1 mph 23.0 mph N/A Rain Light Rain
11:56 PM 46.6 °F - 46.6 °F 100% 29.55 in 4.0 mi ENE 13.8 mph 24.2 mph N/A Rain Light Rain